CDT,Max TemperatureF,Mean TemperatureF,Min TemperatureF,Max Dew PointF,MeanDew PointF,Min DewpointF,Max Humidity, Mean Humidity, Min Humidity, Max Sea Level PressureIn, Mean Sea Level PressureIn, Min Sea Level PressureIn, Max VisibilityMiles, Mean VisibilityMiles, Min VisibilityMiles, Max Wind SpeedMPH, Mean Wind SpeedMPH, Max Gust SpeedMPH,PrecipitationIn, CloudCover, Events, WindDirDegrees
2013-9-1,79,67,54,57,54,52,93,68,43,30.05,30.01,29.93,10,10,10,15,8,21,0.00,1,,351
2013-9-2,86,70,53,56,52,47,83,59,34,30.09,30.01,29.93,10,10,10,14,10,20,0.00,0,,121
2013-9-3,84,73,61,63,59,54,84,66,47,29.96,29.92,29.88,10,10,10,15,8,18,0.00,0,,105
2013-9-4,90,77,63,64,61,57,93,67,41,30.06,30.02,29.96,10,10,10,21,13,29,0.00,0,,80
2013-9-5,90,76,62,65,60,51,79,59,38,30.07,30.00,29.91,10,10,10,21,9,26,0.00,0,,116
2013-9-6,97,81,65,67,64,60,93,62,30,29.91,29.86,29.82,10,10,10,16,8,23,0.00,0,,73
2013-9-7,93,79,65,68,65,63,93,67,41,29.97,29.93,29.87,10,10,10,35,10,46,0.35,1,Rain,77
2013-9-8,81,73,64,68,65,63,93,78,62,30.11,29.94,29.70,10,8,0,35,9,46,1.04,6,Fog-Rain-Thunderstorm,61
2013-9-9,83,72,60,70,65,57,100,72,43,29.83,29.71,29.60,10,9,1,6,8,7,1.34,5,Rain-Thunderstorm,289
2013-9-10,82,69,56,61,56,54,93,67,40,30.01,29.95,29.85,10,10,10,12,4,14,0.00,0,,295
2013-9-11,84,69,54,60,54,47,100,67,33,30.19,30.10,30.01,10,10,10,15,7,21,0.00,1,,5
2013-9-12,78,64,49,53,47,42,96,64,31,30.30,30.25,30.20,10,10,10,13,5,16,0.00,0,,28
2013-9-13,82,67,51,52,48,43,83,55,26,30.19,30.05,29.87,10,10,10,21,12,26,0.00,0,,148
2013-9-14,71,66,61,61,57,51,97,78,58,29.96,29.82,29.73,10,10,3,17,10,23,0.02,7,Rain,51
2013-9-15,68,58,47,59,51,47,93,73,52,30.30,30.17,29.97,10,10,7,9,9,13,T,4,Rain,36
2013-9-16,70,58,46,54,50,45,100,74,47,30.29,30.16,29.97,10,10,10,29,17,37,0.00,2,,153
2013-9-17,79,69,58,60,57,52,90,71,52,29.96,29.79,29.67,10,10,10,21,15,26,0.00,1,,156
2013-9-18,84,73,61,66,62,55,100,74,47,29.72,29.59,29.53,10,7,2,39,9,52,0.21,5,Rain-Thunderstorm,71
2013-9-19,65,58,50,58,47,43,84,66,48,30.04,29.89,29.68,10,10,10,29,17,40,0.01,4,,313
2013-9-20,70,57,43,44,41,36,89,59,28,30.08,30.02,29.96,10,10,10,14,8,22,0.00,1,,319
2013-9-21,78,60,41,46,41,38,89,58,27,29.98,29.83,29.63,10,10,10,23,14,29,0.00,0,,109
2013-9-22,92,72,51,58,53,46,89,61,32,29.62,29.50,29.41,10,10,10,24,15,33,T,0,,134
2013-9-23,75,66,56,57,54,51,93,70,46,29.83,29.60,29.42,10,9,2,23,13,30,0.23,3,Rain,225
2013-9-24,77,61,44,56,49,40,100,64,27,29.96,29.89,29.82,10,9,2,13,5,15,0.00,1,,183
2013-9-25,81,67,53,55,52,47,80,58,35,29.82,29.64,29.49,10,10,10,29,17,36,0.00,0,,149
2013-9-26,73,63,52,58,52,42,90,69,47,29.82,29.64,29.47,10,9,2,22,13,29,0.00,1,,307
2013-9-27,57,52,47,47,44,41,93,78,62,29.86,29.81,29.78,10,10,5,21,12,28,0.13,8,Rain,340
2013-9-28,67,57,46,46,42,35,93,63,32,29.86,29.83,29.80,10,10,10,24,10,31,0.04,4,Rain,289
2013-9-29,77,60,43,48,44,39,93,63,33,29.85,29.69,29.54,10,10,10,18,8,24,0.00,0,,158
2013-9-30,79,62,44,50,46,43,93,62,30,29.66,29.55,29.44,10,10,10,22,7,38,T,0,,299